sat.trackr.live / text

‹ back to catalog

QIANFAN-33

NORAD 61566 · 2024-185Q

PAYLOAD ACTIVE UNKNOWN

§ Identity

Operator
Country
PRC
Launch date
2024-10-15
Launch site
TAISC
Launch vehicle
Mass (kg)
RCS (m²)

External: N2YO · Heavens-Above · Gunter

§ Orbital elements

Epoch: 2026-09-22T19:52:26.950944Z

Period
103.10 min
Inclination
88.9837°
Eccentricity
0.0008755
Mean motion
13.96754899 rev/d
Perigee alt
898.7 km
Apogee alt
911.4 km
Semi-major
7,283.2 km
B*
2.0667e-4
RAAN
47.1413°
Arg perigee
147.1337°
Mean anomaly
213.0386°
Rev number
10,881

§ Raw data

QIANFAN-331 61566U 24185Q   26265.82808971  .00000300  00000+0  20667-3 0  99942 61566  88.9837  47.1413 0008755 147.1337 213.0386 13.96754899108812

JSON: /api/v1/satellites/61566 · /tle

For live sub-satellite position, see the globe view (requires WebGL).

§ Visibility from observer

Set your observer location to see the next 7 days of passes ≥ 10°. The values pass through the URL so the page stays shareable.

No JS? Fill the form by hand. The geolocation button needs JavaScript.